Flag for Brazil Weather past 2 weeks in Fortaleza, Ceará, Brazil

Now
81 °F

Clear.


Feels Like: 84 °F
Forecast: N/A
Wind: 9 mph from East

Location: Fortaleza Aeropor-To

Current Time: Jan 25, 2015 at 7:22:51 PM

Latest Report: Jan 25, 2015 at 6:00 PM


Visibility: 10 mi

Pressure: 29.86 "Hg

Humidity: 70%

Dew point: 70 °F

Location of FortalezaLocation

Historic Weather in Fortaleza — Graph

°F

Fortaleza temperature yesterday

Maximum temperature yesterday: 86 °F (at 11:00 AM)
Minimum temperature yesterday: 77 °F (at 5:00 AM)
Average temperature yesterday: 82 °F

Past Weeks' High & Low Weather Summary

 TemperatureHumidityPressure
High88 °F (Jan 15, 2:00 PM)89% (Jan 13, 7:00 AM)30.45 "Hg (Jan 13, 7:00 AM)
Low75 °F (Jan 13, 6:10 AM)46% (Jan 15, 2:00 PM)29.80 "Hg (Jan 20, 3:00 PM)
Average82 °F67%29.90 "Hg
* Reported Jan 10 6:00 PM — Jan 25 6:00 PM, Fortaleza, Weather by CustomWeather, © 2014

Note: Actual official high and low records may vary slightly from our data, if they occured in-between our weather recording intervals... More about our weather records

Advertising

Fortaleza weather history for previous 24 hours

 ConditionsComfort  
Time TempWeatherWind HumidityBarometerVisibility
6:00 PM
Jan 25
81 °FClear.9 mph70%29.86 "Hg10 mi
5:00 PM82 °FSunny.12 mph62%29.86 "Hg10 mi
4:00 PM82 °FSunny.15 mph62%29.83 "Hg10 mi
3:00 PM84 °FPassing clouds.17 mph55%29.86 "HgN/A
2:00 PM86 °FPassing clouds.18 mph52%29.86 "HgN/A
1:00 PM86 °FScattered clouds.22 mph49%29.89 "HgN/A
12:00 PM86 °FPartly sunny.21 mph52%29.92 "HgN/A
11:00 AM86 °FPartly sunny.20 mph55%29.92 "HgN/A
10:00 AM84 °FPartly sunny.18 mph55%29.92 "HgN/A
9:00 AM84 °FPartly sunny.17 mph58%29.95 "HgN/A
8:00 AM82 °FPartly sunny.18 mph62%29.92 "HgN/A
7:00 AM81 °FScattered clouds.14 mph66%29.92 "HgN/A
6:00 AM79 °FPassing clouds.12 mph70%29.89 "HgN/A
5:00 AM79 °FPassing clouds.9 mph70%29.89 "HgN/A
4:00 AM79 °FPassing clouds.14 mph70%29.86 "HgN/A
3:00 AM79 °FPassing clouds.14 mph74%29.86 "HgN/A
2:00 AM81 °FPassing clouds.10 mph70%29.86 "HgN/A
1:00 AM81 °FPassing clouds.12 mph70%29.89 "HgN/A
12:00 AM81 °FPassing clouds.14 mph70%29.92 "HgN/A
11:00 PM
Jan 24
81 °FPassing clouds.14 mph70%29.92 "HgN/A
10:00 PM81 °FPassing clouds.10 mph74%29.92 "HgN/A
9:00 PM81 °FPassing clouds.14 mph70%29.92 "HgN/A
8:00 PM81 °FPassing clouds.12 mph70%29.89 "HgN/A
7:00 PM81 °FPassing clouds.12 mph70%29.89 "HgN/A
Weather by CustomWeather, © 2014

See weather overviewHow to use our weather pages